• En España
  • Lista de países
  • Para 7 días
  • Temperatura del agua
  • Mapa Satelital
  • El tiempo en el mapa
  • Informadores
  • user-avatar
    Iniciar sesión

    Tiempo cada hora Meppel

    Hoy, 25 Abril, Miércoles

    Tiempo Temperatura Precipitaciones Viento Presión Humedad
    00:00 +11°C° 0,3 mm 7 mps 754 mmHg 90%
    01:00 +11°C° 0,1 mm 8 mps 754 mmHg 90%
    02:00 +11°C° 0,1 mm 8 mps 753 mmHg 89%
    03:00 +10°C° 0,1 mm 8 mps 753 mmHg 89%
    04:00 +10°C° 0,1 mm 8 mps 753 mmHg 89%
    05:00 +10°C° 0,1 mm 8 mps 753 mmHg 89%
    06:00 +9°C° 0,1 mm 8 mps 754 mmHg 89%
    07:00 +9°C° 0 mm 7 mps 755 mmHg 87%
    08:00 +8°C° 0 mm 7 mps 755 mmHg 86%
    09:00 +8°C° 0 mm 6 mps 756 mmHg 84%
    10:00 +8°C° 0 mm 6 mps 757 mmHg 82%
    11:00 +9°C° 0 mm 5 mps 757 mmHg 80%
    12:00 +9°C° 0 mm 5 mps 757 mmHg 78%
    13:00 +9°C° 0,1 mm 5 mps 757 mmHg 76%
    14:00 +10°C° 0,1 mm 6 mps 757 mmHg 74%
    15:00 +10°C° 0,1 mm 6 mps 757 mmHg 73%
    16:00 +10°C° 0,1 mm 5 mps 757 mmHg 74%
    17:00 +10°C° 0,1 mm 5 mps 757 mmHg 74%
    18:00 +10°C° 0,1 mm 4 mps 757 mmHg 75%
    19:00 +8°C° 0 mm 4 mps 757 mmHg 77%
    20:00 +7°C° 0 mm 4 mps 757 mmHg 79%
    21:00 +7°C° 0 mm 4 mps 758 mmHg 81%
    22:00 +6°C° 0 mm 4 mps 758 mmHg 81%
    23:00 +6°C° 0 mm 5 mps 758 mmHg 82%

    Mañana, 26 Abril, Jueves

    Tiempo Temperatura Precipitaciones Viento Presión Humedad
    00:00 +6°C° 0 mm 5 mps 758 mmHg 82%
    01:00 +6°C° 0 mm 5 mps 758 mmHg 83%
    02:00 +6°C° 0 mm 5 mps 758 mmHg 85%
    03:00 +6°C° 0 mm 5 mps 758 mmHg 86%
    04:00 +6°C° 0,1 mm 5 mps 758 mmHg 85%
    05:00 +6°C° 0,1 mm 5 mps 758 mmHg 85%
    06:00 +7°C° 0,1 mm 6 mps 759 mmHg 84%
    07:00 +8°C° 0,2 mm 6 mps 759 mmHg 79%
    08:00 +9°C° 0,2 mm 7 mps 760 mmHg 75%
    09:00 +9°C° 0,2 mm 8 mps 760 mmHg 71%
    10:00 +10°C° 0,2 mm 8 mps 760 mmHg 68%
    11:00 +10°C° 0,2 mm 8 mps 760 mmHg 65%
    12:00 +11°C° 0,2 mm 8 mps 761 mmHg 62%
    13:00 +11°C° 0,1 mm 8 mps 761 mmHg 61%
    14:00 +11°C° 0,1 mm 8 mps 761 mmHg 60%
    15:00 +11°C° 0,1 mm 7 mps 761 mmHg 59%
    16:00 +10°C° 0 mm 6 mps 761 mmHg 62%
    17:00 +9°C° 0 mm 5 mps 761 mmHg 66%
    18:00 +10°C° 0 mm 4 mps 761 mmHg 70%
    19:00 +8°C° 0 mm 4 mps 761 mmHg 72%
    20:00 +7°C° 0 mm 4 mps 761 mmHg 75%
    21:00 +7°C° 0 mm 3 mps 762 mmHg 77%
    22:00 +5°C° 0 mm 3 mps 761 mmHg 79%
    23:00 +5°C° 0 mm 3 mps 761 mmHg 82%

    Pasado mañana, 27 Abril, Viernes

    Tiempo Temperatura Precipitaciones Viento Presión Humedad
    00:00 +5°C° 0 mm 3 mps 761 mmHg 84%
    01:00 +5°C° 0 mm 3 mps 761 mmHg 86%
    02:00 +4°C° 0 mm 3 mps 760 mmHg 88%
    03:00 +4°C° 0 mm 3 mps 760 mmHg 90%
    04:00 +5°C° 0 mm 3 mps 760 mmHg 87%
    05:00 +5°C° 0 mm 4 mps 759 mmHg 84%
    06:00 +6°C° 0 mm 4 mps 759 mmHg 81%
    07:00 +7°C° 0 mm 4 mps 759 mmHg 76%
    08:00 +8°C° 0 mm 4 mps 759 mmHg 72%
    09:00 +10°C° 0 mm 4 mps 758 mmHg 67%
    10:00 +11°C° 0 mm 4 mps 758 mmHg 65%
    11:00 +12°C° 0 mm 4 mps 757 mmHg 62%
    12:00 +13°C° 0 mm 4 mps 757 mmHg 60%
    13:00 +13°C° 0 mm 4 mps 756 mmHg 60%
    14:00 +14°C° 0 mm 4 mps 756 mmHg 59%
    15:00 +15°C° 0 mm 4 mps 755 mmHg 58%
    16:00 +14°C° 0,1 mm 4 mps 754 mmHg 62%
    17:00 +14°C° 0,1 mm 4 mps 754 mmHg 67%
    18:00 +13°C° 0,1 mm 3 mps 754 mmHg 71%
    19:00 +12°C° 0,1 mm 4 mps 754 mmHg 75%
    20:00 +11°C° 0,1 mm 4 mps 754 mmHg 79%
    21:00 +9°C° 0,1 mm 5 mps 754 mmHg 83%
    22:00 +9°C° 0 mm 5 mps 754 mmHg 83%
    23:00 +8°C° 0 mm 6 mps 754 mmHg 83%

    28 Abril, Sábado

    Tiempo Temperatura Precipitaciones Viento Presión Humedad
    00:00 +6°C° 0 mm 7 mps 754 mmHg 83%
    01:00 +8°C° 0 mm 7 mps 754 mmHg 84%
    02:00 +8°C° 0 mm 7 mps 754 mmHg 84%
    03:00 +8°C° 0 mm 7 mps 754 mmHg 84%
    04:00 +8°C° 0 mm 7 mps 755 mmHg 84%
    05:00 +8°C° 0 mm 7 mps 755 mmHg 84%
    06:00 +8°C° 0 mm 6 mps 756 mmHg 83%
    07:00 +8°C° 0 mm 6 mps 756 mmHg 82%
    08:00 +8°C° 0 mm 6 mps 757 mmHg 80%
    09:00 +8°C° 0 mm 6 mps 758 mmHg 79%
    10:00 +9°C° 0 mm 6 mps 758 mmHg 77%
    11:00 +9°C° 0 mm 6 mps 759 mmHg 74%
    12:00 +9°C° 0 mm 6 mps 759 mmHg 72%
    13:00 +10°C° 0 mm 5 mps 759 mmHg 71%
    14:00 +11°C° 0 mm 4 mps 759 mmHg 70%
    15:00 +11°C° 0 mm 4 mps 759 mmHg 69%
    16:00 +10°C° 0 mm 3 mps 760 mmHg 72%
    17:00 +10°C° 0 mm 3 mps 760 mmHg 75%
    18:00 +9°C° 0 mm 2 mps 760 mmHg 78%
    19:00 +8°C° 0 mm 2 mps 760 mmHg 83%
    20:00 +7°C° 0 mm 2 mps 760 mmHg 88%
    21:00 +6°C° 0 mm 2 mps 761 mmHg 92%
    22:00 +6°C° 0 mm 2 mps 760 mmHg 92%
    23:00 +6°C° 0 mm 2 mps 760 mmHg 92%

    29 Abril, Domingo

    Tiempo Temperatura Precipitaciones Viento Presión Humedad
    00:00 +6°C° 0 mm 2 mps 760 mmHg 92%
    01:00 +5°C° 0,1 mm 3 mps 760 mmHg 92%
    02:00 +5°C° 0,1 mm 3 mps 759 mmHg 92%
    03:00 +5°C° 0,1 mm 4 mps 759 mmHg 91%
    04:00 +5°C° 1,2 mm 4 mps 759 mmHg 92%
    05:00 +5°C° 1,2 mm 5 mps 759 mmHg 93%
    06:00 +5°C° 1,2 mm 5 mps 758 mmHg 93%
    07:00 +5°C° 0,4 mm 5 mps 758 mmHg 93%
    08:00 +4°C° 0,4 mm 6 mps 758 mmHg 92%
    09:00 +5°C° 0,4 mm 6 mps 758 mmHg 91%
    10:00 +5°C° 0,3 mm 6 mps 758 mmHg 90%
    11:00 +5°C° 0,3 mm 7 mps 757 mmHg 89%
    12:00 +6°C° 0,3 mm 7 mps 757 mmHg 88%
    13:00 +5°C° 0,8 mm 7 mps 757 mmHg 89%
    14:00 +5°C° 0,8 mm 7 mps 756 mmHg 90%
    15:00 +5°C° 0,8 mm 8 mps 756 mmHg 91%
    16:00 +5°C° 0 mm 8 mps 756 mmHg 91%
    17:00 +5°C° 0 mm 8 mps 756 mmHg 91%
    18:00 +3°C° 0 mm 9 mps 755 mmHg 90%
    19:00 +5°C° 0,1 mm 9 mps 755 mmHg 90%
    20:00 +5°C° 0,1 mm 9 mps 755 mmHg 89%
    21:00 +5°C° 0,1 mm 9 mps 755 mmHg 89%
    22:00 +5°C° 0,3 mm 9 mps 754 mmHg 89%
    23:00 +5°C° 0,3 mm 9 mps 754 mmHg 88%

    30 Abril, Lunes

    Tiempo Temperatura Precipitaciones Viento Presión Humedad
    00:00 +5°C° 0,3 mm 10 mps 753 mmHg 88%
    01:00 +5°C° 1,2 mm 10 mps 753 mmHg 88%
    02:00 +3°C° 1,2 mm 10 mps 753 mmHg 88%
    03:00 +3°C° 1,2 mm 10 mps 752 mmHg 89%
    04:00 +3°C° 3,6 mm 10 mps 753 mmHg 90%
    05:00 +3°C° 3,6 mm 9 mps 753 mmHg 91%
    06:00 +4°C° 3,6 mm 8 mps 753 mmHg 92%
    07:00 +4°C° 1,8 mm 8 mps 753 mmHg 92%
    08:00 +4°C° 1,8 mm 8 mps 753 mmHg 92%
    09:00 +4°C° 1,8 mm 8 mps 753 mmHg 92%
    10:00 +4°C° 0,3 mm 8 mps 753 mmHg 92%
    11:00 +4°C° 0,3 mm 7 mps 754 mmHg 92%
    12:00 +4°C° 0,3 mm 7 mps 754 mmHg 92%
    13:00 +5°C° 0,4 mm 6 mps 754 mmHg 92%
    14:00 +6°C° 0,4 mm 5 mps 754 mmHg 93%
    15:00 +6°C° 0,4 mm 4 mps 754 mmHg 93%
    16:00 +6°C° 0,7 mm 4 mps 755 mmHg 94%
    17:00 +7°C° 0,7 mm 3 mps 755 mmHg 94%
    18:00 +7°C° 0,7 mm 3 mps 755 mmHg 95%
    19:00 +7°C° 0,2 mm 3 mps 756 mmHg 96%
    20:00 +7°C° 0,2 mm 2 mps 756 mmHg 96%
    21:00 +6°C° 0,2 mm 2 mps 756 mmHg 96%
    22:00 +6°C° 0 mm 2 mps 756 mmHg 97%
    23:00 +7°C° 0 mm 1 mps 756 mmHg 97%
    Mostrar más